Time,TemperatureF,DewpointF,PressureIn,WindDirection,WindDirectionDegrees,WindSpeedMPH,WindSpeedGustMPH,Humidity,HourlyPrecipIn,Conditions,Clouds,dailyrainin,SoftwareType,DateUTC
2013-10-18 00:01:00,75.3,71.5,29.92,NNW,329,0.0,0.0,88,0.00,FEW,,0.00,WeatherDisplay:10.37,2013-10-18 04:01:00,
2013-10-18 00:06:00,75.2,71.4,29.91,NNW,328,0.0,0.0,88,0.00,OVC,,0.00,WeatherDisplay:10.37,2013-10-18 04:06:00,
2013-10-18 00:11:00,75.0,71.5,29.91,NNW,328,0.0,0.0,89,0.00,OVC,,0.00,WeatherDisplay:10.37,2013-10-18 04:11:00,
2013-10-18 00:16:00,74.8,71.3,29.91,NNW,328,0.0,0.0,89,0.00,OVC,,0.00,WeatherDisplay:10.37,2013-10-18 04:16:00,
2013-10-18 00:21:00,74.5,71.0,29.91,NNW,328,0.0,0.0,89,0.00,OVC,,0.00,WeatherDisplay:10.37,2013-10-18 04:21:00,
2013-10-18 00:26:00,74.2,71.1,29.91,NNW,328,0.0,0.0,90,0.00,OVC,,0.00,WeatherDisplay:10.37,2013-10-18 04:26:00,
2013-10-18 00:31:00,74.2,71.4,29.91,NNW,329,0.0,0.0,91,0.00,OVC,,0.00,WeatherDisplay:10.37,2013-10-18 04:31:00,
2013-10-18 00:36:00,74.0,71.2,29.91,NNW,329,0.0,0.0,91,0.00,OVC,,0.00,WeatherDisplay:10.37,2013-10-18 04:36:00,
2013-10-18 00:41:00,73.8,71.0,29.91,NNW,328,0.0,0.0,91,0.00,OVC,,0.00,WeatherDisplay:10.37,2013-10-18 04:41:00,
2013-10-18 00:46:00,73.7,70.9,29.91,NNW,328,0.0,0.0,91,0.00,OVC,,0.00,WeatherDisplay:10.37,2013-10-18 04:46:00,
2013-10-18 00:51:00,73.5,70.7,29.90,NNW,328,0.0,0.0,91,0.00,OVC,,0.00,WeatherDisplay:10.37,2013-10-18 04:51:00,
2013-10-18 00:56:00,73.5,71.0,29.90,NNW,329,0.0,0.0,92,0.00,OVC,,0.00,WeatherDisplay:10.37,2013-10-18 04:56:00,
2013-10-18 01:01:00,73.3,70.8,29.90,NNW,328,0.0,0.0,92,0.00,BKN,,0.00,WeatherDisplay:10.37,2013-10-18 05:01:00,
2013-10-18 01:06:00,73.3,71.2,29.90,NNW,328,0.0,0.0,93,0.00,BKN,,0.00,WeatherDisplay:10.37,2013-10-18 05:06:00,
2013-10-18 01:11:00,73.4,71.3,29.90,NNW,328,0.0,0.0,93,0.00,BKN,,0.00,WeatherDisplay:10.37,2013-10-18 05:11:00,
2013-10-18 01:16:00,73.3,71.2,29.90,NNW,328,0.0,0.0,93,0.00,BKN,,0.00,WeatherDisplay:10.37,2013-10-18 05:16:00,
2013-10-18 01:21:00,73.2,71.1,29.90,NNW,328,0.0,0.0,93,0.00,BKN,,0.00,WeatherDisplay:10.37,2013-10-18 05:21:00,
2013-10-18 01:26:00,73.2,71.1,29.90,NNW,328,0.0,0.0,93,0.00,BKN,,0.00,WeatherDisplay:10.37,2013-10-18 05:26:00,
2013-10-18 01:31:00,73.1,71.0,29.90,NNW,328,0.0,0.0,93,0.00,BKN,,0.00,WeatherDisplay:10.37,2013-10-18 05:31:00,
2013-10-18 01:36:00,73.0,70.9,29.90,NNW,328,0.0,0.0,93,0.00,BKN,,0.00,WeatherDisplay:10.37,2013-10-18 05:36:00,
2013-10-18 01:41:00,72.9,71.1,29.90,NNW,329,0.0,0.0,94,0.00,BKN,,0.00,WeatherDisplay:10.37,2013-10-18 05:41:00,
2013-10-18 01:46:00,72.8,71.0,29.90,NNW,328,0.0,0.0,94,0.00,BKN,,0.00,WeatherDisplay:10.37,2013-10-18 05:46:00,
2013-10-18 01:51:00,73.0,71.2,29.90,NNW,329,0.0,0.0,94,0.00,BKN,,0.00,WeatherDisplay:10.37,2013-10-18 05:51:00,
2013-10-18 01:56:00,73.1,71.3,29.90,NNW,330,0.0,0.0,94,0.00,BKN,,0.00,WeatherDisplay:10.37,2013-10-18 05:56:00,
2013-10-18 02:01:00,73.1,71.3,29.90,NNW,329,0.0,0.0,94,0.00,SCT,,0.00,WeatherDisplay:10.37,2013-10-18 06:01:00,
2013-10-18 02:06:00,73.1,71.0,29.90,NNW,329,0.0,0.0,93,0.00,SCT,,0.00,WeatherDisplay:10.37,2013-10-18 06:06:00,
2013-10-18 02:11:00,73.1,71.0,29.90,NNW,330,0.0,0.0,93,0.00,SCT,,0.00,WeatherDisplay:10.37,2013-10-18 06:11:00,
2013-10-18 02:16:00,73.0,71.2,29.90,NNW,330,0.0,0.0,94,0.00,SCT,,0.00,WeatherDisplay:10.37,2013-10-18 06:16:00,
2013-10-18 02:21:00,72.9,70.8,29.89,NNW,329,0.0,0.0,93,0.00,SCT,,0.00,WeatherDisplay:10.37,2013-10-18 06:21:00,
2013-10-18 02:26:00,72.8,71.0,29.90,NNW,328,0.0,0.0,94,0.00,SCT,,0.00,WeatherDisplay:10.37,2013-10-18 06:26:00,
2013-10-18 02:31:00,72.6,70.5,29.89,NNW,329,0.0,0.0,93,0.00,SCT,,0.00,WeatherDisplay:10.37,2013-10-18 06:31:00,
2013-10-18 02:36:00,72.4,70.6,29.89,NNW,329,0.0,0.0,94,0.00,SCT,,0.00,WeatherDisplay:10.37,2013-10-18 06:36:00,
2013-10-18 02:41:00,72.4,70.6,29.89,NNW,329,0.0,0.0,94,0.00,SCT,,0.00,WeatherDisplay:10.37,2013-10-18 06:41:00,
2013-10-18 02:46:00,72.3,70.5,29.89,NNW,329,0.0,0.0,94,0.00,SCT,,0.00,WeatherDisplay:10.37,2013-10-18 06:46:00,
2013-10-18 02:51:00,72.2,70.4,29.89,NNW,330,0.0,0.0,94,0.00,SCT,,0.00,WeatherDisplay:10.37,2013-10-18 06:51:00,
2013-10-18 02:56:00,72.1,70.3,29.89,NNW,328,0.0,0.0,94,0.00,SCT,,0.00,WeatherDisplay:10.37,2013-10-18 06:56:00,
2013-10-18 03:01:00,72.1,70.3,29.89,NNW,340,0.0,1.2,94,0.00,SCT,,0.00,WeatherDisplay:10.37,2013-10-18 07:01:00,
2013-10-18 03:06:00,72.1,70.3,29.89,NE,41,0.2,1.2,94,0.00,SCT,,0.00,WeatherDisplay:10.37,2013-10-18 07:06:00,
2013-10-18 03:11:00,72.2,70.4,29.89,NNE,20,0.2,1.2,94,0.00,CLR,,0.00,WeatherDisplay:10.37,2013-10-18 07:11:00,
2013-10-18 03:16:00,72.3,70.2,29.89,NNE,19,0.0,0.0,93,0.00,CLR,,0.00,WeatherDisplay:10.37,2013-10-18 07:16:00,
2013-10-18 03:21:00,72.2,69.7,29.89,NNE,25,0.0,1.2,92,0.00,CLR,,0.00,WeatherDisplay:10.37,2013-10-18 07:21:00,
2013-10-18 03:26:00,72.3,69.8,29.89,NNE,26,0.0,0.0,92,0.00,CLR,,0.00,WeatherDisplay:10.37,2013-10-18 07:26:00,
2013-10-18 03:31:00,72.4,69.6,29.89,NNE,24,0.0,0.0,91,0.00,CLR,,0.00,WeatherDisplay:10.37,2013-10-18 07:31:00,
2013-10-18 03:36:00,72.4,69.6,29.89,NNE,25,0.0,0.0,91,0.00,CLR,,0.00,WeatherDisplay:10.37,2013-10-18 07:36:00,
2013-10-18 03:41:00,72.3,69.5,29.89,NNE,25,0.0,0.0,91,0.00,CLR,,0.00,WeatherDisplay:10.37,2013-10-18 07:41:00,
2013-10-18 03:46:00,72.2,69.4,29.89,NNE,24,0.0,0.0,91,0.00,CLR,,0.00,WeatherDisplay:10.37,2013-10-18 07:46:00,
2013-10-18 03:51:00,72.0,69.2,29.89,NNE,24,0.0,0.0,91,0.00,CLR,,0.00,WeatherDisplay:10.37,2013-10-18 07:51:00,
2013-10-18 03:56:00,71.9,69.1,29.89,NNE,25,0.0,0.0,91,0.00,CLR,,0.00,WeatherDisplay:10.37,2013-10-18 07:56:00,
2013-10-18 04:01:00,71.8,69.0,29.89,NNE,26,0.0,0.0,91,0.00,CLR,,0.00,WeatherDisplay:10.37,2013-10-18 08:01:00,
2013-10-18 04:06:00,71.8,69.3,29.89,NNE,26,0.0,0.0,92,0.00,CLR,,0.00,WeatherDisplay:10.37,2013-10-18 08:06:00,
2013-10-18 04:11:00,71.6,69.2,29.89,NNE,26,0.0,0.0,92,0.00,CLR,,0.00,WeatherDisplay:10.37,2013-10-18 08:11:00,
2013-10-18 04:16:00,71.4,69.0,29.89,NNE,26,0.0,0.0,92,0.00,CLR,,0.00,WeatherDisplay:10.37,2013-10-18 08:16:00,
2013-10-18 04:21:00,71.2,68.8,29.89,NNE,26,0.0,0.0,92,0.00,CLR,,0.00,WeatherDisplay:10.37,2013-10-18 08:21:00,
2013-10-18 04:26:00,71.0,68.6,29.89,NNE,26,0.0,0.0,92,0.00,CLR,,0.00,WeatherDisplay:10.37,2013-10-18 08:26:00,
2013-10-18 04:31:00,70.9,68.8,29.89,NNE,26,0.0,0.0,93,0.00,CLR,,0.00,WeatherDisplay:10.37,2013-10-18 08:31:00,
2013-10-18 04:36:00,70.8,68.7,29.89,NNE,26,0.0,0.0,93,0.00,CLR,,0.00,WeatherDisplay:10.37,2013-10-18 08:36:00,
2013-10-18 04:41:00,70.7,68.6,29.89,NNE,26,0.0,0.0,93,0.00,CLR,,0.00,WeatherDisplay:10.37,2013-10-18 08:41:00,
2013-10-18 04:46:00,70.6,68.8,29.89,NNE,26,0.0,0.0,94,0.00,CLR,,0.00,WeatherDisplay:10.37,2013-10-18 08:46:00,
2013-10-18 04:51:00,70.6,68.8,29.89,NNE,26,0.0,0.0,94,0.00,CLR,,0.00,WeatherDisplay:10.37,2013-10-18 08:51:00,
2013-10-18 04:56:00,70.5,68.7,29.89,NNE,26,0.0,0.0,94,0.00,CLR,,0.00,WeatherDisplay:10.37,2013-10-18 08:56:00,
2013-10-18 05:01:00,70.6,68.8,29.89,NNE,26,0.0,0.0,94,0.00,BKN,,0.00,WeatherDisplay:10.37,2013-10-18 09:01:00,
2013-10-18 05:06:00,70.5,68.7,29.89,NNE,26,0.0,0.0,94,0.00,BKN,,0.00,WeatherDisplay:10.37,2013-10-18 09:06:00,
2013-10-18 05:11:00,70.5,69.0,29.89,NNE,26,0.0,0.0,95,0.00,BKN,,0.00,WeatherDisplay:10.37,2013-10-18 09:11:00,
2013-10-18 05:16:00,70.7,69.2,29.89,NNE,26,0.0,0.0,95,0.00,BKN,,0.00,WeatherDisplay:10.37,2013-10-18 09:16:00,
2013-10-18 05:21:00,70.8,69.3,29.89,ESE,103,0.0,0.0,95,0.00,BKN,,0.00,WeatherDisplay:10.37,2013-10-18 09:21:00,
2013-10-18 05:26:00,70.8,69.3,29.89,ESE,104,0.0,0.0,95,0.00,BKN,,0.00,WeatherDisplay:10.37,2013-10-18 09:26:00,
2013-10-18 05:31:00,70.8,69.3,29.90,ESE,103,0.0,0.0,95,0.00,BKN,,0.00,WeatherDisplay:10.37,2013-10-18 09:31:00,
2013-10-18 05:36:00,70.9,69.4,29.90,ESE,103,0.0,0.0,95,0.00,BKN,,0.00,WeatherDisplay:10.37,2013-10-18 09:36:00,
2013-10-18 05:41:00,70.9,69.4,29.90,ESE,103,0.0,0.0,95,0.00,BKN,,0.00,WeatherDisplay:10.37,2013-10-18 09:41:00,
2013-10-18 05:46:00,70.9,69.4,29.90,ESE,105,0.0,0.0,95,0.00,BKN,,0.00,WeatherDisplay:10.37,2013-10-18 09:46:00,
2013-10-18 05:51:00,70.9,69.4,29.90,ESE,105,0.0,0.0,95,0.00,BKN,,0.00,WeatherDisplay:10.37,2013-10-18 09:51:00,
2013-10-18 05:56:00,70.8,69.3,29.90,ESE,104,0.0,0.0,95,0.00,BKN,,0.00,WeatherDisplay:10.37,2013-10-18 09:56:00,
2013-10-18 06:01:00,70.9,69.4,29.90,ESE,103,0.0,0.0,95,0.00,SCT,,0.00,WeatherDisplay:10.37,2013-10-18 10:01:00,
2013-10-18 06:06:00,70.8,69.3,29.90,ESE,103,0.0,0.0,95,0.00,SCT,,0.00,WeatherDisplay:10.37,2013-10-18 10:06:00,
2013-10-18 06:11:00,70.9,69.4,29.90,ESE,105,0.0,1.2,95,0.00,SCT,,0.00,WeatherDisplay:10.37,2013-10-18 10:11:00,
2013-10-18 06:16:00,70.9,69.4,29.91,ESE,104,0.0,0.0,95,0.00,SCT,,0.00,WeatherDisplay:10.37,2013-10-18 10:16:00,
2013-10-18 06:21:00,70.9,69.4,29.91,ESE,105,0.0,0.0,95,0.00,SCT,,0.00,WeatherDisplay:10.37,2013-10-18 10:21:00,
2013-10-18 06:26:00,70.8,69.3,29.91,ESE,105,0.0,0.0,95,0.00,SCT,,0.00,WeatherDisplay:10.37,2013-10-18 10:26:00,
2013-10-18 06:31:00,70.7,69.2,29.91,ESE,105,0.0,0.0,95,0.00,SCT,,0.00,WeatherDisplay:10.37,2013-10-18 10:31:00,
2013-10-18 06:36:00,70.6,69.1,29.91,ESE,105,0.0,0.0,95,0.00,SCT,,0.00,WeatherDisplay:10.37,2013-10-18 10:36:00,
2013-10-18 06:41:00,70.7,69.2,29.91,ESE,103,0.0,0.0,95,0.00,SCT,,0.00,WeatherDisplay:10.37,2013-10-18 10:41:00,
2013-10-18 06:46:00,70.6,69.1,29.91,ESE,103,0.0,0.0,95,0.00,SCT,,0.00,WeatherDisplay:10.37,2013-10-18 10:46:00,
2013-10-18 06:51:00,70.4,68.9,29.91,ESE,103,0.0,0.0,95,0.00,SCT,,0.00,WeatherDisplay:10.37,2013-10-18 10:51:00,
2013-10-18 06:56:00,70.4,68.9,29.91,ESE,104,0.0,0.0,95,0.00,SCT,,0.00,WeatherDisplay:10.37,2013-10-18 10:56:00,
2013-10-18 07:01:00,70.3,68.8,29.91,ESE,104,0.0,0.0,95,0.00,SCT,,0.00,WeatherDisplay:10.37,2013-10-18 11:01:00,
2013-10-18 07:06:00,70.1,68.6,29.92,ESE,104,0.0,0.0,95,0.00,SCT,,0.00,WeatherDisplay:10.37,2013-10-18 11:06:00,
2013-10-18 07:11:00,70.2,69.0,29.92,ESE,104,0.0,0.0,96,0.00,SCT,,0.00,WeatherDisplay:10.37,2013-10-18 11:11:00,
2013-10-18 07:16:00,70.2,69.0,29.92,ESE,103,0.0,0.0,96,0.00,SCT,,0.00,WeatherDisplay:10.37,2013-10-18 11:16:00,
2013-10-18 07:21:00,70.2,69.0,29.92,ESE,103,0.0,0.0,96,0.00,SCT,,0.00,WeatherDisplay:10.37,2013-10-18 11:21:00,
2013-10-18 07:26:00,70.2,69.0,29.92,ESE,103,0.0,0.0,96,0.00,SCT,,0.00,WeatherDisplay:10.37,2013-10-18 11:26:00,
2013-10-18 07:31:00,70.2,69.0,29.92,ESE,103,0.0,0.0,96,0.00,SCT,,0.00,WeatherDisplay:10.37,2013-10-18 11:31:00,
2013-10-18 07:36:00,70.2,69.0,29.92,ESE,103,0.0,0.0,96,0.00,SCT,,0.00,WeatherDisplay:10.37,2013-10-18 11:36:00,
2013-10-18 07:41:00,70.1,68.9,29.92,ESE,103,0.0,0.0,96,0.00,SCT,,0.00,WeatherDisplay:10.37,2013-10-18 11:41:00,
2013-10-18 07:46:00,70.1,68.9,29.93,ESE,103,0.0,0.0,96,0.00,SCT,,0.00,WeatherDisplay:10.37,2013-10-18 11:46:00,
2013-10-18 07:51:00,70.2,69.0,29.93,ESE,104,0.0,0.0,96,0.00,SCT,,0.00,WeatherDisplay:10.37,2013-10-18 11:51:00,
2013-10-18 07:56:00,70.5,69.3,29.93,ESE,104,0.0,0.0,96,0.00,SCT,,0.00,WeatherDisplay:10.37,2013-10-18 11:56:00,
2013-10-18 08:01:00,71.0,69.8,29.93,SE,141,0.1,1.2,96,0.00,FEW,,0.00,WeatherDisplay:10.37,2013-10-18 12:01:00,
2013-10-18 08:06:00,71.3,70.1,29.93,South,179,0.0,0.0,96,0.00,FEW,,0.00,WeatherDisplay:10.37,2013-10-18 12:06:00,
2013-10-18 08:11:00,71.5,70.0,29.94,SSE,163,0.0,0.0,95,0.00,FEW,,0.00,WeatherDisplay:10.37,2013-10-18 12:11:00,
2013-10-18 08:16:00,71.8,70.3,29.94,SE,134,0.0,0.0,95,0.00,FEW,,0.00,WeatherDisplay:10.37,2013-10-18 12:16:00,
2013-10-18 08:21:00,72.4,70.9,29.94,SE,139,0.0,0.0,95,0.00,FEW,,0.00,WeatherDisplay:10.37,2013-10-18 12:21:00,
2013-10-18 08:26:00,73.1,71.3,29.94,SE,125,0.8,2.3,94,0.00,FEW,,0.00,WeatherDisplay:10.37,2013-10-18 12:26:00,
2013-10-18 08:31:00,73.6,71.4,29.94,SE,143,0.0,0.0,93,0.00,FEW,,0.00,WeatherDisplay:10.37,2013-10-18 12:31:00,
2013-10-18 08:36:00,74.1,71.3,29.94,SE,127,0.7,2.3,91,0.00,FEW,,0.00,WeatherDisplay:10.37,2013-10-18 12:36:00,
2013-10-18 08:41:00,74.6,71.5,29.94,SE,129,0.9,2.3,90,0.00,FEW,,0.00,WeatherDisplay:10.37,2013-10-18 12:41:00,
2013-10-18 08:46:00,75.0,71.5,29.95,ESE,115,0.9,2.3,89,0.00,FEW,,0.00,WeatherDisplay:10.37,2013-10-18 12:46:00,
2013-10-18 08:51:00,75.5,71.7,29.95,ESE,117,1.5,3.5,88,0.00,FEW,,0.00,WeatherDisplay:10.37,2013-10-18 12:51:00,
2013-10-18 08:56:00,75.7,71.9,29.95,East,101,0.7,3.5,88,0.00,FEW,,0.00,WeatherDisplay:10.37,2013-10-18 12:56:00,
2013-10-18 09:01:00,76.0,71.8,29.95,South,178,0.9,2.3,87,0.00,CLR,,0.00,WeatherDisplay:10.37,2013-10-18 13:01:00,
2013-10-18 09:06:00,76.5,72.0,29.95,ESE,123,0.4,1.2,86,0.00,CLR,,0.00,WeatherDisplay:10.37,2013-10-18 13:06:00,
2013-10-18 09:11:00,76.8,72.3,29.95,SE,130,0.3,1.2,86,0.00,CLR,,0.00,WeatherDisplay:10.37,2013-10-18 13:11:00,
2013-10-18 09:16:00,77.3,72.1,29.95,SE,125,0.2,2.3,84,0.00,CLR,,0.00,WeatherDisplay:10.37,2013-10-18 13:16:00,
2013-10-18 09:21:00,77.7,72.5,29.95,SSE,149,0.5,2.3,84,0.00,CLR,,0.00,WeatherDisplay:10.37,2013-10-18 13:21:00,
2013-10-18 09:26:00,78.3,73.1,29.95,SSE,150,0.5,2.3,84,0.00,CLR,,0.00,WeatherDisplay:10.37,2013-10-18 13:26:00,
2013-10-18 09:31:00,78.8,72.8,29.95,SE,131,1.1,2.3,82,0.00,CLR,,0.00,WeatherDisplay:10.37,2013-10-18 13:31:00,
2013-10-18 09:36:00,79.1,73.5,29.95,SE,125,0.0,0.0,83,0.00,CLR,,0.00,WeatherDisplay:10.37,2013-10-18 13:36:00,
2013-10-18 09:41:00,79.2,72.5,29.96,SSE,153,1.0,2.3,80,0.00,CLR,,0.00,WeatherDisplay:10.37,2013-10-18 13:41:00,
2013-10-18 09:46:00,79.2,72.9,29.96,ESE,115,0.0,0.0,81,0.00,CLR,,0.00,WeatherDisplay:10.37,2013-10-18 13:46:00,
2013-10-18 09:51:00,79.7,73.3,29.96,SSE,148,0.2,1.2,81,0.00,CLR,,0.00,WeatherDisplay:10.37,2013-10-18 13:51:00,
2013-10-18 09:56:00,79.9,73.2,29.96,East,94,0.4,2.3,80,0.00,CLR,,0.00,WeatherDisplay:10.37,2013-10-18 13:56:00,
2013-10-18 10:02:00,80.2,73.1,29.96,SE,138,0.2,1.2,79,0.00,CLR,,0.00,WeatherDisplay:10.37,2013-10-18 14:02:00,
2013-10-18 10:07:00,80.7,73.6,29.96,SSE,154,0.0,0.0,79,0.00,CLR,,0.00,WeatherDisplay:10.37,2013-10-18 14:07:00,
2013-10-18 10:12:00,81.2,73.3,29.96,SE,131,0.5,2.3,77,0.00,CLR,,0.00,WeatherDisplay:10.37,2013-10-18 14:12:00,
2013-10-18 10:17:00,81.2,73.3,29.96,East,85,0.0,2.3,77,0.00,CLR,,0.00,WeatherDisplay:10.37,2013-10-18 14:17:00,
2013-10-18 10:22:00,81.3,73.4,29.96,South,186,0.1,2.3,77,0.00,CLR,,0.00,WeatherDisplay:10.37,2013-10-18 14:22:00,
2013-10-18 10:27:00,81.9,73.6,29.96,SW,217,0.7,3.5,76,0.00,CLR,,0.00,WeatherDisplay:10.37,2013-10-18 14:27:00,
2013-10-18 10:32:00,82.3,73.6,29.96,ESE,107,1.4,3.5,75,0.00,CLR,,0.00,WeatherDisplay:10.37,2013-10-18 14:32:00,
2013-10-18 10:37:00,82.6,73.9,29.96,South,191,1.6,3.5,75,0.00,CLR,,0.00,WeatherDisplay:10.37,2013-10-18 14:37:00,
2013-10-18 10:42:00,82.7,73.2,29.96,ESE,115,1.2,3.5,73,0.00,CLR,,0.00,WeatherDisplay:10.37,2013-10-18 14:42:00,
2013-10-18 10:47:00,83.1,73.5,29.96,SSW,200,0.3,1.2,73,0.00,CLR,,0.00,WeatherDisplay:10.37,2013-10-18 14:47:00,
2013-10-18 10:52:00,83.0,73.9,29.96,ESE,118,1.1,3.5,74,0.00,CLR,,0.00,WeatherDisplay:10.37,2013-10-18 14:52:00,
2013-10-18 10:57:00,83.0,73.4,29.96,ENE,74,0.9,3.5,73,0.00,CLR,,0.00,WeatherDisplay:10.37,2013-10-18 14:57:00,
2013-10-18 11:02:00,83.7,73.7,29.96,SSW,212,0.8,1.2,72,0.00,CLR,,0.00,WeatherDisplay:10.37,2013-10-18 15:02:00,
2013-10-18 11:07:00,84.3,73.9,29.96,ESE,115,1.2,3.5,71,0.00,CLR,,0.00,WeatherDisplay:10.37,2013-10-18 15:07:00,
2013-10-18 11:12:00,84.7,73.8,29.96,East,89,1.2,4.0,70,0.00,CLR,,0.00,WeatherDisplay:10.37,2013-10-18 15:12:00,
2013-10-18 11:17:00,84.5,73.2,29.96,ENE,72,1.2,3.5,69,0.00,CLR,,0.00,WeatherDisplay:10.37,2013-10-18 15:17:00,
2013-10-18 11:22:00,84.4,74.0,29.96,NNE,30,1.1,2.3,71,0.00,CLR,,0.00,WeatherDisplay:10.37,2013-10-18 15:22:00,
2013-10-18 11:27:00,85.0,73.3,29.96,SE,142,1.8,3.5,68,0.00,CLR,,0.00,WeatherDisplay:10.37,2013-10-18 15:27:00,
2013-10-18 11:32:00,85.5,72.8,29.96,South,183,3.1,5.0,66,0.00,CLR,,0.00,WeatherDisplay:10.37,2013-10-18 15:32:00,
2013-10-18 11:37:00,85.4,72.7,29.96,WSW,240,2.0,3.5,66,0.00,CLR,,0.00,WeatherDisplay:10.37,2013-10-18 15:37:00,
2013-10-18 11:42:00,85.5,72.8,29.96,SE,143,2.3,4.6,66,0.00,CLR,,0.00,WeatherDisplay:10.37,2013-10-18 15:42:00,
2013-10-18 11:47:00,85.9,72.8,29.96,SW,226,2.2,6.9,65,0.00,CLR,,0.00,WeatherDisplay:10.37,2013-10-18 15:47:00,
2013-10-18 11:52:00,86.5,73.8,29.96,ENE,72,1.3,3.5,66,0.00,CLR,,0.00,WeatherDisplay:10.37,2013-10-18 15:52:00,
2013-10-18 11:57:00,86.8,73.2,29.96,SE,127,3.5,5.0,64,0.00,CLR,,0.00,WeatherDisplay:10.37,2013-10-18 15:57:00,
2013-10-18 12:02:00,85.9,73.2,29.96,SW,235,3.2,4.0,66,0.00,CLR,,0.00,WeatherDisplay:10.37,2013-10-18 16:02:00,
2013-10-18 12:07:00,86.0,73.3,29.95,NW,305,1.3,3.5,66,0.00,CLR,,0.00,WeatherDisplay:10.37,2013-10-18 16:07:00,
2013-10-18 12:12:00,86.6,73.9,29.95,WSW,239,3.6,4.6,66,0.00,CLR,,0.00,WeatherDisplay:10.37,2013-10-18 16:12:00,
2013-10-18 12:17:00,86.9,72.8,29.95,SSW,210,4.5,4.6,63,0.00,CLR,,0.00,WeatherDisplay:10.37,2013-10-18 16:17:00,
2013-10-18 12:22:00,87.2,73.5,29.94,ESE,111,2.4,4.6,64,0.00,CLR,,0.00,WeatherDisplay:10.37,2013-10-18 16:22:00,
2013-10-18 12:27:00,87.3,73.2,29.94,SSE,149,1.0,6.9,63,0.00,CLR,,0.00,WeatherDisplay:10.37,2013-10-18 16:27:00,
2013-10-18 12:32:00,87.4,73.3,29.94,SW,215,1.5,3.5,63,0.00,CLR,,0.00,WeatherDisplay:10.37,2013-10-18 16:32:00,
2013-10-18 12:37:00,87.6,73.9,29.94,SW,218,3.5,8.1,64,0.00,CLR,,0.00,WeatherDisplay:10.37,2013-10-18 16:37:00,
2013-10-18 12:42:00,87.3,73.6,29.94,SW,236,1.9,5.8,64,0.00,CLR,,0.00,WeatherDisplay:10.37,2013-10-18 16:42:00,
2013-10-18 12:47:00,87.4,73.7,29.94,SSW,205,3.0,4.6,64,0.00,CLR,,0.00,WeatherDisplay:10.37,2013-10-18 16:47:00,
2013-10-18 12:52:00,88.0,73.8,29.93,SW,235,3.5,3.5,63,0.00,CLR,,0.00,WeatherDisplay:10.37,2013-10-18 16:52:00,
2013-10-18 12:57:00,88.4,74.7,29.93,SW,236,2.8,5.8,64,0.00,CLR,,0.00,WeatherDisplay:10.37,2013-10-18 16:57:00,
2013-10-18 13:02:00,88.2,73.5,29.93,SSE,160,3.8,6.9,62,0.00,CLR,,0.00,WeatherDisplay:10.37,2013-10-18 17:02:00,
2013-10-18 13:07:00,87.7,73.5,29.93,SSW,204,3.7,6.9,63,0.00,CLR,,0.00,WeatherDisplay:10.37,2013-10-18 17:07:00,
2013-10-18 13:12:00,87.9,74.2,29.92,SSE,166,4.4,4.4,64,0.00,CLR,,0.00,WeatherDisplay:10.37,2013-10-18 17:12:00,
2013-10-18 13:17:00,88.3,74.6,29.92,SSW,203,4.1,11.5,64,0.00,CLR,,0.00,WeatherDisplay:10.37,2013-10-18 17:17:00,
2013-10-18 13:22:00,88.3,74.1,29.92,SSW,193,5.1,6.9,63,0.00,CLR,,0.00,WeatherDisplay:10.37,2013-10-18 17:22:00,
2013-10-18 13:27:00,87.7,73.5,29.91,WSW,257,4.2,9.2,63,0.00,CLR,,0.00,WeatherDisplay:10.37,2013-10-18 17:27:00,
2013-10-18 13:32:00,87.3,72.7,29.91,SSW,205,3.8,5.8,62,0.00,CLR,,0.00,WeatherDisplay:10.37,2013-10-18 17:32:00,
2013-10-18 13:35:00,87.1,72.0,29.91,SW,221,4.2,6.9,61,0.00,CLR,,0.00,WeatherDisplay:10.37,2013-10-18 17:35:00,
2013-10-18 13:40:00,87.1,72.0,29.91,SSW,203,3.1,5.8,61,0.00,CLR,,0.00,WeatherDisplay:10.37,2013-10-18 17:40:00,
2013-10-18 13:45:00,87.1,72.5,29.91,SW,236,3.2,6.9,62,0.00,CLR,,0.00,WeatherDisplay:10.37,2013-10-18 17:45:00,
2013-10-18 13:50:00,87.7,72.1,29.91,South,173,4.6,8.1,60,0.00,CLR,,0.00,WeatherDisplay:10.37,2013-10-18 17:50:00,
2013-10-18 13:55:00,87.5,72.4,29.91,SSW,193,4.7,6.9,61,0.00,CLR,,0.00,WeatherDisplay:10.37,2013-10-18 17:55:00,
2013-10-18 14:00:00,87.7,72.6,29.91,SSE,165,4.1,5.0,61,0.00,CLR,,0.00,WeatherDisplay:10.37,2013-10-18 18:00:00,
2013-10-18 14:05:00,87.8,72.7,29.90,West,262,3.6,5.8,61,0.00,SCT,,0.00,WeatherDisplay:10.37,2013-10-18 18:05:00,
2013-10-18 14:10:00,87.7,72.6,29.90,NW,326,2.0,5.8,61,0.00,SCT,,0.00,WeatherDisplay:10.37,2013-10-18 18:10:00,
2013-10-18 14:15:00,87.7,72.6,29.90,SSW,211,2.7,8.1,61,0.00,SCT,,0.00,WeatherDisplay:10.37,2013-10-18 18:15:00,
2013-10-18 14:20:00,87.6,72.0,29.90,SW,226,5.4,8.1,60,0.00,SCT,,0.00,WeatherDisplay:10.37,2013-10-18 18:20:00,
2013-10-18 14:25:00,87.5,71.4,29.89,SSE,153,6.1,6.9,59,0.00,SCT,,0.00,WeatherDisplay:10.37,2013-10-18 18:25:00,
2013-10-18 14:30:00,87.6,71.5,29.89,WSW,257,3.5,5.8,59,0.00,SCT,,0.00,WeatherDisplay:10.37,2013-10-18 18:30:00,
2013-10-18 14:35:00,87.5,71.9,29.89,SW,232,5.4,6.9,60,0.00,SCT,,0.00,WeatherDisplay:10.37,2013-10-18 18:35:00,
2013-10-18 14:40:00,87.6,71.5,29.89,SW,228,3.7,5.8,59,0.00,SCT,,0.00,WeatherDisplay:10.37,2013-10-18 18:40:00,
2013-10-18 14:45:00,87.2,71.1,29.89,WSW,257,5.1,5.1,59,0.00,SCT,,0.00,WeatherDisplay:10.37,2013-10-18 18:45:00,
2013-10-18 14:50:00,87.2,71.6,29.89,SW,229,1.6,8.1,60,0.00,SCT,,0.00,WeatherDisplay:10.37,2013-10-18 18:50:00,
2013-10-18 14:55:00,87.4,71.3,29.89,SSW,200,4.2,8.1,59,0.00,SCT,,0.00,WeatherDisplay:10.37,2013-10-18 18:55:00,
2013-10-18 15:00:00,87.1,71.0,29.89,West,274,3.1,6.9,59,0.00,SCT,,0.00,WeatherDisplay:10.37,2013-10-18 19:00:00,
2013-10-18 15:05:00,86.8,70.8,29.89,SSW,192,2.8,8.1,59,0.00,CLR,,0.00,WeatherDisplay:10.37,2013-10-18 19:05:00,
2013-10-18 15:10:00,87.0,70.9,29.89,SW,233,3.4,10.4,59,0.00,CLR,,0.00,WeatherDisplay:10.37,2013-10-18 19:10:00,
2013-10-18 15:15:00,87.4,71.3,29.88,SW,233,3.0,6.9,59,0.00,CLR,,0.00,WeatherDisplay:10.37,2013-10-18 19:15:00,
2013-10-18 15:20:00,87.5,70.9,29.88,SSW,210,2.1,3.0,58,0.00,CLR,,0.00,WeatherDisplay:10.37,2013-10-18 19:20:00,
2013-10-18 15:25:00,87.5,70.9,29.88,SW,221,4.5,8.1,58,0.00,CLR,,0.00,WeatherDisplay:10.37,2013-10-18 19:25:00,
2013-10-18 15:30:00,87.5,70.4,29.88,SW,222,6.3,8.1,57,0.00,CLR,,0.00,WeatherDisplay:10.37,2013-10-18 19:30:00,
2013-10-18 15:35:00,87.2,70.1,29.88,SW,226,5.2,7.0,57,0.00,CLR,,0.00,WeatherDisplay:10.37,2013-10-18 19:35:00,
2013-10-18 15:40:00,87.0,70.4,29.88,SW,225,5.0,8.1,58,0.00,CLR,,0.00,WeatherDisplay:10.37,2013-10-18 19:40:00,
2013-10-18 15:45:00,86.9,70.3,29.88,SSW,210,4.9,9.2,58,0.00,CLR,,0.00,WeatherDisplay:10.37,2013-10-18 19:45:00,
2013-10-18 15:50:00,86.7,70.2,29.88,South,184,5.2,11.5,58,0.00,CLR,,0.00,WeatherDisplay:10.37,2013-10-18 19:50:00,
2013-10-18 15:55:00,86.5,70.5,29.88,WSW,246,6.3,10.4,59,0.00,CLR,,0.00,WeatherDisplay:10.37,2013-10-18 19:55:00,
2013-10-18 16:00:00,86.3,70.8,29.88,West,263,1.9,8.1,60,0.00,CLR,,0.00,WeatherDisplay:10.37,2013-10-18 20:00:00,
2013-10-18 16:05:00,86.4,71.4,29.88,SSW,204,2.6,5.8,61,0.00,FEW,,0.00,WeatherDisplay:10.37,2013-10-18 20:05:00,
2013-10-18 16:10:00,86.4,71.4,29.88,SSE,165,4.5,5.8,61,0.00,FEW,,0.00,WeatherDisplay:10.37,2013-10-18 20:10:00,
2013-10-18 16:15:00,86.5,71.9,29.88,SW,222,3.2,5.8,62,0.00,FEW,,0.00,WeatherDisplay:10.37,2013-10-18 20:15:00,
2013-10-18 16:20:00,86.7,71.6,29.88,SE,143,3.8,6.0,61,0.00,FEW,,0.00,WeatherDisplay:10.37,2013-10-18 20:20:00,
2013-10-18 16:25:00,86.7,71.6,29.88,SW,235,3.4,5.8,61,0.00,FEW,,0.00,WeatherDisplay:10.37,2013-10-18 20:25:00,
2013-10-18 16:30:00,86.5,71.9,29.88,SW,224,2.2,6.9,62,0.00,FEW,,0.00,WeatherDisplay:10.37,2013-10-18 20:30:00,
2013-10-18 16:35:00,86.7,71.6,29.88,WSW,239,5.4,6.9,61,0.00,FEW,,0.00,WeatherDisplay:10.37,2013-10-18 20:35:00,
2013-10-18 16:40:00,86.8,71.2,29.88,SSW,209,3.7,4.0,60,0.00,FEW,,0.00,WeatherDisplay:10.37,2013-10-18 20:40:00,
2013-10-18 16:45:00,86.5,71.5,29.88,South,172,5.6,6.9,61,0.00,FEW,,0.00,WeatherDisplay:10.37,2013-10-18 20:45:00,
2013-10-18 16:50:00,86.6,72.0,29.88,SW,236,1.6,3.5,62,0.00,FEW,,0.00,WeatherDisplay:10.37,2013-10-18 20:50:00,
2013-10-18 16:55:00,86.6,72.0,29.88,SW,235,2.3,3.5,62,0.00,FEW,,0.00,WeatherDisplay:10.37,2013-10-18 20:55:00,
2013-10-18 17:00:00,86.4,72.3,29.88,WSW,248,2.6,3.5,63,0.00,FEW,,0.00,WeatherDisplay:10.37,2013-10-18 21:00:00,
2013-10-18 17:05:00,86.3,71.3,29.88,SSW,199,3.9,5.8,61,0.00,CLR,,0.00,WeatherDisplay:10.37,2013-10-18 21:05:00,
2013-10-18 17:10:00,86.2,71.2,29.88,SW,222,3.2,6.0,61,0.00,CLR,,0.00,WeatherDisplay:10.37,2013-10-18 21:10:00,
2013-10-18 17:15:00,86.1,71.1,29.88,WSW,238,3.6,5.8,61,0.00,CLR,,0.00,WeatherDisplay:10.37,2013-10-18 21:15:00,
2013-10-18 17:20:00,86.1,71.6,29.88,WSW,242,2.5,3.5,62,0.00,CLR,,0.00,WeatherDisplay:10.37,2013-10-18 21:20:00,
2013-10-18 17:25:00,86.0,71.5,29.88,South,176,0.7,5.8,62,0.00,CLR,,0.00,WeatherDisplay:10.37,2013-10-18 21:25:00,
2013-10-18 17:30:00,85.9,71.4,29.88,South,174,2.1,3.5,62,0.00,CLR,,0.00,WeatherDisplay:10.37,2013-10-18 21:30:00,
2013-10-18 17:35:00,86.0,71.5,29.88,SW,225,0.5,2.3,62,0.00,CLR,,0.00,WeatherDisplay:10.37,2013-10-18 21:35:00,
2013-10-18 17:40:00,85.7,71.2,29.88,SW,224,3.4,8.1,62,0.00,CLR,,0.00,WeatherDisplay:10.37,2013-10-18 21:40:00,
2013-10-18 17:45:00,85.4,71.4,29.88,SSW,211,0.6,3.5,63,0.00,CLR,,0.00,WeatherDisplay:10.37,2013-10-18 21:45:00,
2013-10-18 17:50:00,85.9,71.8,29.88,SW,214,0.5,1.2,63,0.00,CLR,,0.00,WeatherDisplay:10.37,2013-10-18 21:50:00,
2013-10-18 17:55:00,85.6,71.6,29.88,WSW,258,0.4,1.2,63,0.00,CLR,,0.00,WeatherDisplay:10.37,2013-10-18 21:55:00,
2013-10-18 18:00:00,84.9,71.8,29.88,West,276,0.1,1.2,65,0.00,CLR,,0.00,WeatherDisplay:10.37,2013-10-18 22:00:00,
2013-10-18 18:05:00,84.4,72.7,29.88,NNE,22,0.8,3.5,68,0.00,CLR,,0.00,WeatherDisplay:10.37,2013-10-18 22:05:00,
2013-10-18 18:10:00,83.9,72.6,29.88,NW,318,0.1,2.0,69,0.00,CLR,,0.00,WeatherDisplay:10.37,2013-10-18 22:10:00,
2013-10-18 18:15:00,83.5,72.7,29.89,NNE,13,0.0,0.0,70,0.00,CLR,,0.00,WeatherDisplay:10.37,2013-10-18 22:15:00,
2013-10-18 18:20:00,83.1,72.7,29.88,SE,125,0.2,1.2,71,0.00,CLR,,0.00,WeatherDisplay:10.37,2013-10-18 22:20:00,
2013-10-18 18:25:00,82.8,72.4,29.89,NW,315,1.2,3.5,71,0.00,CLR,,0.00,WeatherDisplay:10.37,2013-10-18 22:25:00,
2013-10-18 18:30:00,82.4,72.5,29.89,NE,49,0.0,1.2,72,0.00,CLR,,0.00,WeatherDisplay:10.37,2013-10-18 22:30:00,
2013-10-18 18:35:00,82.1,72.6,29.89,WNW,294,0.1,1.2,73,0.00,CLR,,0.00,WeatherDisplay:10.37,2013-10-18 22:35:00,
2013-10-18 18:40:00,81.9,72.4,29.89,WSW,253,0.1,0.0,73,0.00,CLR,,0.00,WeatherDisplay:10.37,2013-10-18 22:40:00,
2013-10-18 18:45:00,81.7,72.6,29.89,NW,309,0.0,0.0,74,0.00,CLR,,0.00,WeatherDisplay:10.37,2013-10-18 22:45:00,
2013-10-18 18:50:00,81.5,72.8,29.89,NNW,345,0.1,2.0,75,0.00,CLR,,0.00,WeatherDisplay:10.37,2013-10-18 22:50:00,
2013-10-18 18:55:00,81.2,72.9,29.90,West,281,0.0,1.2,76,0.00,CLR,,0.00,WeatherDisplay:10.37,2013-10-18 22:55:00,
2013-10-18 19:00:00,81.0,72.7,29.90,West,281,0.0,0.0,76,0.00,CLR,,0.00,WeatherDisplay:10.37,2013-10-18 23:00:00,
2013-10-18 19:05:00,80.7,72.8,29.90,West,281,0.0,0.0,77,0.00,CLR,,0.00,WeatherDisplay:10.37,2013-10-18 23:05:00,
2013-10-18 19:10:00,80.5,72.6,29.90,WNW,285,0.0,0.0,77,0.00,CLR,,0.00,WeatherDisplay:10.37,2013-10-18 23:10:00,
2013-10-18 19:15:00,80.4,72.9,29.90,WNW,293,0.0,0.0,78,0.00,CLR,,0.00,WeatherDisplay:10.37,2013-10-18 23:15:00,
2013-10-18 19:20:00,80.2,72.7,29.90,West,269,0.0,0.0,78,0.00,CLR,,0.00,WeatherDisplay:10.37,2013-10-18 23:20:00,
2013-10-18 19:25:00,80.0,72.9,29.91,West,267,0.0,0.0,79,0.00,CLR,,0.00,WeatherDisplay:10.37,2013-10-18 23:25:00,
2013-10-18 19:31:00,79.8,72.7,29.91,West,267,0.0,0.0,79,0.00,CLR,,0.00,WeatherDisplay:10.37,2013-10-18 23:31:00,
2013-10-18 19:36:00,79.6,72.5,29.91,West,267,0.0,0.0,79,0.00,CLR,,0.00,WeatherDisplay:10.37,2013-10-18 23:36:00,
2013-10-18 19:41:00,79.4,72.7,29.91,West,267,0.0,0.0,80,0.00,CLR,,0.00,WeatherDisplay:10.37,2013-10-18 23:41:00,
2013-10-18 19:46:00,79.2,72.9,29.91,West,267,0.0,0.0,81,0.00,CLR,,0.00,WeatherDisplay:10.37,2013-10-18 23:46:00,
2013-10-18 19:51:00,79.0,72.7,29.91,West,266,0.0,0.0,81,0.00,CLR,,0.00,WeatherDisplay:10.37,2013-10-18 23:51:00,
2013-10-18 19:56:00,79.0,72.7,29.91,West,266,0.0,0.0,81,0.00,CLR,,0.00,WeatherDisplay:10.37,2013-10-18 23:56:00,